Flag for U.S.A. Weather past 2 weeks in Worcester, Massachusetts, U.S.A.

Now
51 °F

Clear.


Feels Like: 47 °F
Forecast: 49 / 68 °F
Wind: 10 mph from Northwest

Location: Worcester Regional Airport

Current Time: Sep 17, 2014 at 3:47:12 AM

Latest Report: Sep 17, 2014 at 2:54 AM


Visibility: 10 mi

Pressure: 30.01 "Hg

Humidity: 86%

Dew point: 47 °F

Location of WorcesterLocation

Historic Weather in Worcester — Graph

°F

Worcester temperature yesterday

Maximum temperature yesterday: 63 °F (at 2:54 PM)
Minimum temperature yesterday: 50 °F (at 2:54 AM)
Average temperature yesterday: 56 °F

Past Weeks' High & Low Weather Summary

 TemperatureHumidityPressure
High85 °F (Sep 2, 1:54 PM)100% (Sep 10, 1:54 AM)30.39 "Hg (Sep 10, 1:54 AM)
Low45 °F (Sep 15, 4:54 AM)37% (Sep 7, 2:54 PM)29.74 "Hg (Sep 3, 1:54 AM)
Average63 °F75%30.10 "Hg
* Reported Sep 2 3:01 AM — Sep 17 2:54 AM, Worcester, Weather by CustomWeather, © 2014

Note: Actual official high and low records may vary slightly from our data, if they occured in-between our weather recording intervals... More about our weather records

Advertising

Worcester weather history for previous 24 hours

 ConditionsComfort  
Time TempWeatherWind HumidityBarometerVisibility
2:54 AM
Sep 17
51 °FClear.10 mph86%30.01 "Hg10 mi
1:54 AM52 °FClear.12 mph86%30.01 "Hg10 mi
12:54 AM53 °FClear.10 mph89%30.01 "Hg10 mi
11:54 PM
Sep 16
54 °FClear.9 mph90%30.01 "Hg10 mi
10:54 PM55 °FClear.8 mph90%30.01 "Hg10 mi
9:54 PM56 °FPassing clouds.7 mph87%30.01 "Hg10 mi
8:54 PM57 °FOvercast.8 mph83%30.01 "Hg10 mi
7:54 PM57 °FOvercast.5 mph87%30.00 "Hg10 mi
6:54 PM59 °FOvercast.5 mph78%29.99 "Hg10 mi
5:54 PM60 °FOvercast.3 mph75%29.98 "Hg10 mi
4:54 PM60 °FOvercast.6 mph72%29.98 "Hg10 mi
3:54 PM61 °FOvercast.8 mph67%29.98 "Hg10 mi
2:54 PM63 °FScattered clouds.10 mph65%29.97 "Hg10 mi
1:54 PM60 °FMostly cloudy.9 mph75%29.99 "Hg10 mi
1:02 PM59 °FCloudy.10 mph75%30.00 "Hg10 mi
11:54 AM56 °FMostly cloudy.7 mph84%30.02 "Hg10 mi
10:54 AM55 °FLight rain. Mostly cloudy.7 mph87%30.03 "Hg10 mi
9:54 AM56 °FMostly cloudy.5 mph81%30.04 "Hg10 mi
8:54 AM55 °FLight rain. Mostly cloudy.3 mph80%30.03 "Hg10 mi
7:54 AM54 °FOvercast.No wind74%30.04 "Hg10 mi
6:54 AM53 °FMostly cloudy.No wind77%30.05 "Hg10 mi
5:54 AM52 °FOvercast.3 mph77%30.06 "Hg10 mi
4:54 AM52 °FMostly cloudy.3 mph77%30.06 "Hg10 mi
3:54 AM51 °FClear.5 mph80%30.06 "Hg10 mi
Weather by CustomWeather, © 2014

See weather overviewHow to use our weather pages